Location: Newark
(39.0622°N, 106.5590°E)
Time: 21:02:35
(UTC+00:00)

Vanguard 2 Rocket - Pass Details

Date: 02 February 2020
Orbit: 553 x 3327 km, 32.9° (Epoch: 26 February)

Event Time Altitude Azimuth Distance (km) Brightness Sun altitude
Rises 23:03:48 0° 264° (W) 2,742 - -11.2°
Reaches altitude 10° 23:06:04 10° 250° (WSW) 1,927 - -10.7°
Exits shadow 23:06:04 10° 250° (WSW) 1,926 8.1 -10.7°
Maximum altitude 23:09:40 27° 192° (SSW) 1,334 7.8 -10.0°
Drops below altitude 10° 23:14:28 10° 135° (SE) 2,608 10.3 -9.1°
Sets 23:18:06 0° 125° (SE) 3,966 11.7 -8.5°
